| time (UTC) | temp C | wind direction | speed KPH | gust KPH | rain 1hr cm | rain 24hr cm | rain mn cm | humidity % | barometer mb |
| 20260505121558 | 14 | 301 | 0.0 | 4.8 | 0.00 | 0.00 | 0.00 | 71 | 1022.5 |
| 20260505120059 | 15 | 292 | 1.6 | 4.8 | 0.00 | 0.00 | 0.00 | 71 | 1022.5 |
| 20260505114601 | 15 | 275 | 1.6 | 6.4 | 0.00 | 0.00 | 0.00 | 71 | 1022.6 |
| 20260505113057 | 14 | 305 | 0.0 | 6.4 | 0.00 | 0.00 | 0.00 | 71 | 1022.7 |
| 20260505111557 | 14 | 263 | 1.6 | 4.8 | 0.00 | 0.00 | 0.00 | 71 | 1022.6 |
| 20260505101608 | 14 | 325 | 0.0 | 0.0 | 0.00 | 0.00 | 0.00 | 73 | 1022.4 |
| 20260505100104 | 15 | 263 | 0.0 | 0.0 | 0.00 | 0.00 | 0.00 | 73 | 1022.5 |
| 20260505094553 | 15 | 263 | 0.0 | 0.0 | 0.00 | 0.00 | 0.00 | 73 | 1022.4 |
| 20260505093102 | 15 | 263 | 0.0 | 0.0 | 0.00 | 0.00 | 0.00 | 73 | 1022.5 |
| 20260505091554 | 15 | 263 | 0.0 | 0.0 | 0.00 | 0.00 | 0.00 | 73 | 1022.4 |
| 20260505090052 | 15 | 262 | 0.0 | 0.0 | 0.00 | 0.00 | 0.00 | 73 | 1022.2 |
| 20260505084553 | 15 | 262 | 0.0 | 4.8 | 0.00 | 0.00 | 0.00 | 73 | 1022.3 |
| 20260505083050 | 15 | 263 | 0.0 | 0.0 | 0.00 | 0.00 | 0.00 | 73 | 1022.1 |
| 20260505081601 | 15 | 263 | 0.0 | 4.8 | 0.00 | 0.00 | 0.00 | 72 | 1021.9 |
| 20260505080058 | 15 | 265 | 0.0 | 3.2 | 0.00 | 0.00 | 0.00 | 71 | 1021.7 |
| 20260505074546 | 15 | 252 | 1.6 | 6.4 | 0.00 | 0.00 | 0.00 | 71 | 1021.5 |
| 20260505073048 | 15 | 268 | 1.6 | 6.4 | 0.00 | 0.00 | 0.00 | 69 | 1021.4 |
| 20260505071551 | 15 | 273 | 1.6 | 6.4 | 0.00 | 0.00 | 0.00 | 67 | 1021.3 |
| 20260505070045 | 15 | 245 | 1.6 | 6.4 | 0.00 | 0.00 | 0.00 | 67 | 1021.3 |
| 20260505064543 | 16 | 262 | 1.6 | 6.4 | 0.00 | 0.00 | 0.00 | 66 | 1021.2 |
| 20260505063048 | 16 | 260 | 3.2 | 4.8 | 0.00 | 0.00 | 0.00 | 64 | 1021.1 |
| 20260505061545 | 16 | 253 | 0.0 | 4.8 | 0.00 | 0.00 | 0.00 | 65 | 1021.1 |
| 20260505060042 | 15 | 277 | 3.2 | 6.4 | 0.00 | 0.00 | 0.00 | 66 | 1020.9 |
| 20260505054546 | 15 | 261 | 3.2 | 8.0 | 0.00 | 0.00 | 0.00 | 66 | 1020.8 |
| 20260505053044 | 15 | 255 | 1.6 | 8.0 | 0.00 | 0.00 | 0.00 | 66 | 1020.7 |
| 20260505051541 | 15 | 275 | 3.2 | 11.3 | 0.00 | 0.00 | 0.00 | 66 | 1020.6 |
| 20260505041535 | 15 | 237 | 3.2 | 11.3 | 0.00 | 0.00 | 0.00 | 65 | 1020.1 |
| 20260505040035 | 16 | 304 | 3.2 | 9.7 | 0.00 | 0.00 | 0.00 | 66 | 1019.9 |
| 20260505034534 | 15 | 271 | 3.2 | 9.7 | 0.00 | 0.00 | 0.00 | 68 | 1019.8 |
| 20260505033034 | 15 | 219 | 3.2 | 11.3 | 0.00 | 0.00 | 0.00 | 68 | 1019.9 |
| 20260505031538 | 15 | 321 | 1.6 | 9.7 | 0.00 | 0.00 | 0.00 | 69 | 1019.9 |
| 20260505030033 | 16 | 226 | 6.4 | 12.9 | 0.00 | 0.00 | 0.00 | 67 | 1020.0 |
| 20260505024533 | 16 | 251 | 3.2 | 14.5 | 0.00 | 0.00 | 0.00 | 68 | 1019.9 |
| 20260505023035 | 15 | 246 | 4.8 | 14.5 | 0.00 | 0.00 | 0.00 | 67 | 1020.0 |
| 20260505021535 | 15 | 214 | 4.8 | 19.3 | 0.00 | 0.00 | 0.00 | 69 | 1020.0 |
| 20260505020037 | 15 | 287 | 4.8 | 12.9 | 0.00 | 0.00 | 0.00 | 70 | 1020.2 |
| 20260505014532 | 15 | 323 | 3.2 | 17.7 | 0.00 | 0.00 | 0.00 | 70 | 1020.1 |
| 20260505013032 | 16 | 208 | 6.4 | 19.3 | 0.00 | 0.00 | 0.00 | 69 | 1020.3 |
| 20260505011535 | 16 | 249 | 4.8 | 17.7 | 0.00 | 0.00 | 0.00 | 71 | 1020.4 |
| 20260505010045 | 15 | 254 | 4.8 | 16.1 | 0.00 | 0.00 | 0.00 | 72 | 1020.4 |
| 20260505004525 | 15 | 360 | 4.8 | 17.7 | 0.00 | 0.00 | 0.00 | 73 | 1020.1 |
| 20260505003024 | 15 | 295 | 3.2 | 17.7 | 0.00 | 0.00 | 0.00 | 74 | 1019.9 |
| 20260505001523 | 15 | 277 | 4.8 | 14.5 | 0.00 | 0.00 | 0.00 | 76 | 1019.8 |
| 20260505000035 | 14 | 284 | 4.8 | 14.5 | 0.00 | 0.00 | 0.00 | 77 | 1019.6 |
| 20260504234521 | 14 | 292 | 4.8 | 14.5 | 0.00 | 0.00 | 0.00 | 77 | 1019.6 |
| 20260504233020 | 14 | 297 | 3.2 | 14.5 | 0.00 | 0.00 | 0.00 | 77 | 1019.5 |
| 20260504231519 | 14 | 234 | 4.8 | 12.9 | 0.00 | 0.00 | 0.00 | 78 | 1019.3 |
| 20260504230034 | 14 | 256 | 4.8 | 14.5 | 0.00 | 0.00 | 0.00 | 79 | 1019.2 |
| 20260504224517 | 14 | 260 | 3.2 | 16.1 | 0.00 | 0.00 | 0.00 | 80 | 1019.1 |
| 20260504223016 | 13 | 261 | 3.2 | 12.9 | 0.00 | 0.00 | 0.00 | 81 | 1018.8 |
| 20260504221534 | 13 | 274 | 1.6 | 12.9 | 0.00 | 0.00 | 0.00 | 82 | 1018.4 |
| 20260504220013 | 13 | 277 | 3.2 | 9.7 | 0.00 | 0.00 | 0.00 | 83 | 1018.2 |
| 20260504214511 | 13 | 279 | 3.2 | 9.7 | 0.00 | 0.00 | 0.00 | 83 | 1017.9 |
| 20260504213009 | 13 | 296 | 3.2 | 16.1 | 0.00 | 0.00 | 0.00 | 83 | 1017.6 |
| 20260504211507 | 13 | 273 | 1.6 | 9.7 | 0.00 | 0.00 | 0.00 | 83 | 1017.3 |
| 20260504210005 | 13 | 254 | 4.8 | 11.3 | 0.00 | 0.00 | 0.00 | 83 | 1017.2 |
| 20260504204503 | 13 | 275 | 4.8 | 14.5 | 0.00 | 0.00 | 0.00 | 83 | 1017.0 |
| 20260504203002 | 13 | 267 | 3.2 | 11.3 | 0.00 | 0.00 | 0.00 | 83 | 1016.7 |
| 20260504201559 | 13 | 277 | 3.2 | 9.7 | 0.00 | 0.00 | 0.00 | 82 | 1016.4 |
| 20260504200100 | 13 | 294 | 3.2 | 9.7 | 0.00 | 0.00 | 0.00 | 82 | 1016.2 |
| 20260504194600 | 13 | 282 | 3.2 | 16.1 | 0.00 | 0.00 | 0.00 | 81 | 1016.0 |
| 20260504193100 | 13 | 308 | 1.6 | 14.5 | 0.00 | 0.00 | 0.00 | 80 | 1015.9 |
| 20260504191556 | 13 | 275 | 3.2 | 11.3 | 0.00 | 0.00 | 0.00 | 80 | 1015.8 |
| 20260504190050 | 13 | 254 | 4.8 | 14.5 | 0.00 | 0.00 | 0.00 | 80 | 1015.6 |
| 20260504184547 | 14 | 281 | 3.2 | 16.1 | 0.00 | 0.00 | 0.00 | 79 | 1015.4 |
| 20260504183046 | 14 | 267 | 1.6 | 12.9 | 0.00 | 0.00 | 0.00 | 79 | 1015.1 |
| 20260504181548 | 14 | 240 | 4.8 | 17.7 | 0.00 | 0.00 | 0.00 | 79 | 1015.1 |
| 20260504180049 | 14 | 254 | 1.6 | 14.5 | 0.00 | 0.00 | 0.00 | 79 | 1014.8 |
| 20260504174545 | 14 | 256 | 3.2 | 14.5 | 0.00 | 0.00 | 0.00 | 78 | 1014.8 |
| 20260504173042 | 14 | 293 | 4.8 | 17.7 | 0.00 | 0.00 | 0.00 | 77 | 1014.7 |
| 20260504171539 | 14 | 268 | 4.8 | 17.7 | 0.00 | 0.00 | 0.00 | 76 | 1014.5 |